Location: Unnamed
(48.6007°N, 2.4808°E)
Time: 23:22:52
(UTC+02:00)

NOAA 19 - Visible Passes

Search period start: 31 March 2023 00:00
Search period end: 10 April 2023 00:00
Orbit: 839 x 861 km, 99.1° (Epoch: 31 March)

Date Brightness Start Highest point End Pass type
(mag) Time Alt. Az. Time Alt. Az. Time Alt. Az.
31 Mar 6.6 22:21:51 10° SSW 22:26:51 36° W 22:31:52 10° NNW visible
01 Apr 6.2 22:09:32 10° S 22:14:45 44° W 22:19:59 10° NNW visible
02 Apr 5.8 21:57:18 10° S 22:02:40 55° WSW 22:08:03 10° NNW visible
03 Apr 5.5 21:45:09 10° S 21:50:36 69° WSW 21:56:05 10° NNW visible
03 Apr 8.0 23:31:10 10° W 23:32:15 11° W 23:33:21 10° WNW visible
04 Apr 5.3 21:33:05 10° SSE 21:38:34 85° WSW 21:44:04 10° NNW visible
04 Apr 7.8 23:17:19 10° WSW 23:20:01 14° W 23:22:44 10° WNW visible
05 Apr 5.2 21:21:05 10° SSE 21:26:33 78° ENE 21:32:01 10° NNW visible
05 Apr 7.6 23:04:16 10° SW 23:07:49 17° W 23:11:23 10° NW visible
06 Apr 5.3 21:09:10 10° SSE 21:14:32 63° ENE 21:19:57 10° N visible
06 Apr 7.4 22:51:30 10° SW 22:55:38 22° W 22:59:48 10° NW visible
07 Apr 5.5 20:57:18 10° SE 21:02:34 51° ENE 21:07:51 10° N visible
07 Apr 7.1 22:38:54 10° SSW 22:43:28 27° W 22:48:05 10° NW visible
08 Apr 6.7 22:26:27 10° SSW 22:31:21 33° W 22:36:16 10° NNW visible
09 Apr 6.4 22:14:05 10° SSW 22:19:13 42° W 22:24:24 10° NNW visible
